GW2366 Weather Reports


Display with metric or nautical units.
time (UTC)temp
F
wind
direction
speed
MPH
gust
MPH
rain 1hr
in
rain 24hr
in
rain mn
in
humidity
%
barometer
mb
20260906214227 75 294 2.0 2.0 0.00 0.00 0.00 51 1013.9
20260906213725 74 247 3.0 3.0 0.00 0.00 0.00 51 1013.7
20260906213219 75 228 3.0 3.0 0.00 0.00 0.00 51 1013.8
20260906212716 76 293 4.0 5.0 0.00 0.00 0.00 50 1013.9
20260906212213 76 304 0.0 1.0 0.00 0.00 0.00 51 1013.9
20260906211707 76 321 1.0 2.0 0.00 0.00 0.00 54 1014.0
20260906211203 74 261 1.0 2.0 0.00 0.00 0.00 50 1014.0
20260906210658 74 262 2.0 3.0 0.00 0.00 0.00 52 1014.2
20260906210157 74 262 2.0 3.0 0.00 0.00 0.00 52 1014.2
20260906205652 74 293 3.0 5.0 0.00 0.00 0.00 52 1014.3
20260906205148 74 246 4.0 6.0 0.00 0.00 0.00 52 1014.2
20260906204643 73 237 3.0 5.0 0.00 0.00 0.00 52 1014.3
20260906204137 73 237 2.0 2.0 0.00 0.00 0.00 55 1014.4
20260906203632 74 278 3.0 3.0 0.00 0.00 0.00 50 1014.1
20260906203131 74 238 3.0 5.0 0.00 0.00 0.00 52 1014.2
20260906202629 74 300 3.0 3.0 0.00 0.00 0.00 54 1014.3
20260906202122 73 199 5.0 7.0 0.00 0.00 0.00 53 1014.1
20260906201618 74 243 4.0 6.0 0.00 0.00 0.00 53 1014.1
20260906201117 73 282 0.0 1.0 0.00 0.00 0.00 56 1014.1
20260906200614 74 297 1.0 1.0 0.00 0.00 0.00 55 1014.3
20260906200109 74 247 3.0 5.0 0.00 0.00 0.00 51 1014.2
20260906195604 73 352 0.0 1.0 0.00 0.00 0.00 53 1014.4
20260906195100 73 252 2.0 2.0 0.00 0.00 0.00 53 1014.4
20260906194556 74 293 0.0 0.0 0.00 0.00 0.00 51 1014.4
20260906194052 73 284 3.0 5.0 0.00 0.00 0.00 56 1014.5
20260906193551 74 236 3.0 3.0 0.00 0.00 0.00 51 1014.5
20260906193046 73 297 2.0 2.0 0.00 0.00 0.00 52 1014.4
20260906192542 72 221 4.0 5.0 0.00 0.00 0.00 51 1014.5
20260906192041 72 277 3.0 3.0 0.00 0.00 0.00 54 1014.6
20260906191536 73 266 1.0 1.0 0.00 0.00 0.00 54 1014.7
20260906191035 73 238 2.0 2.0 0.00 0.00 0.00 51 1014.7
20260906190534 72 297 1.0 1.0 0.00 0.00 0.00 55 1014.8
20260906190030 72 259 2.0 2.0 0.00 0.00 0.00 55 1014.8
20260906185529 72 265 3.0 3.0 0.00 0.00 0.00 55 1014.8
20260906185028 70 306 1.0 1.0 0.00 0.00 0.00 68 1014.9
20260906184523 69 34 3.0 3.0 0.00 0.00 0.00 70 1014.9
20260906184019 69 12 0.0 0.0 0.00 0.00 0.00 71 1014.8
20260906183515 69 72 2.0 3.0 0.00 0.00 0.00 70 1015.1
20260906183010 70 63 4.0 5.0 0.00 0.00 0.00 69 1014.7
20260906182505 68 29 1.0 2.0 0.00 0.00 0.00 73 1015.0
20260906182001 68 83 4.0 5.0 0.00 0.00 0.00 74 1014.8
20260906181456 69 63 2.0 2.0 0.00 0.00 0.00 72 1015.0
20260906180952 68 112 2.0 2.0 0.00 0.00 0.00 74 1014.9
20260906180446 67 46 1.0 1.0 0.00 0.00 0.00 75 1014.9
20260906175944 66 87 2.0 2.0 0.00 0.00 0.00 77 1015.1
20260906175439 66 47 2.0 3.0 0.00 0.00 0.00 77 1015.0
20260906174938 66 31 1.0 1.0 0.00 0.00 0.00 77 1015.0
20260906174432 65 260 1.0 2.0 0.00 0.00 0.00 77 1015.1
20260906173927 64 54 0.0 1.0 0.00 0.00 0.00 79 1015.1
20260906173422 63 44 1.0 3.0 0.00 0.00 0.00 82 1015.2
20260906172921 63 99 1.0 2.0 0.00 0.00 0.00 80 1015.2
20260906172418 62 50 2.0 2.0 0.00 0.00 0.00 82 1015.2
20260906171913 61 90 3.0 3.0 0.00 0.00 0.00 83 1015.1
20260906171408 60 80 3.0 3.0 0.00 0.00 0.00 84 1015.0
20260906170903 61 74 3.0 3.0 0.00 0.00 0.00 84 1015.2
20260906170354 61 131 3.0 3.0 0.00 0.00 0.00 82 1015.1
20260906165850 61 53 3.0 3.0 0.00 0.00 0.00 85 1015.2
20260906165349 62 19 2.0 2.0 0.00 0.00 0.00 83 1015.3
20260906164844 62 23 1.0 1.0 0.00 0.00 0.00 83 1015.1
20260906164343 60 13 1.0 1.0 0.00 0.00 0.00 85 1015.0
20260906163839 60 230 1.0 1.0 0.00 0.00 0.00 85 1015.3
20260906163336 58 9 0.0 1.0 0.00 0.00 0.00 90 1015.2
20260906162833 58 43 1.0 2.0 0.00 0.00 0.00 91 1015.2
20260906162331 56 26 1.0 1.0 0.00 0.00 0.00 95 1015.3
20260906161827 55 36 3.0 3.0 0.00 0.00 0.00 95 1015.2
20260906161326 55 19 1.0 2.0 0.00 0.00 0.00 96 1015.1
20260906160824 55 39 2.0 2.0 0.00 0.00 0.00 99 1015.2
20260906160319 54 7 0.0 0.0 0.00 0.00 0.00 99 1015.2
20260906155817 54 20 0.0 1.0 0.00 0.00 0.00 99 1015.1
20260906155311 54 0 0.0 0.0 0.00 0.00 0.00 99 1015.1
20260906154808 54 18 0.0 1.0 0.00 0.00 0.00 99 1015.2
20260906154302 54 17 1.0 1.0 0.00 0.00 0.00 99 1015.2
20260906153800 53 355 0.0 0.0 0.00 0.00 0.00 99 1015.2
20260906153255 52 352 0.0 0.0 0.00 0.00 0.00 99 1015.2
20260906152750 52 5 0.0 0.0 0.00 0.00 0.00 99 1015.0
20260906152245 52 16 1.0 1.0 0.00 0.00 0.00 99 1015.0
20260906151744 53 37 2.0 2.0 0.00 0.00 0.00 99 1015.1
20260906151241 53 12 1.0 1.0 0.00 0.00 0.00 99 1015.3
20260906150736 53 9 1.0 1.0 0.00 0.00 0.00 99 1015.1
20260906150231 54 346 0.0 0.0 0.00 0.00 0.00 99 1015.1
20260906145730 52 292 0.0 0.0 0.00 0.00 0.00 99 1015.0
20260906145229 51 292 0.0 0.0 0.00 0.00 0.00 99 1015.1
20260906144725 51 292 0.0 0.0 0.00 0.00 0.00 99 1015.0
20260906144219 50 292 0.0 0.0 0.00 0.00 0.00 99 1014.9
20260906143718 50 292 0.0 0.0 0.00 0.00 0.00 99 1014.6
20260906143216 49 292 0.0 0.0 0.00 0.00 0.00 99 1014.7
20260906142715 49 292 0.0 0.0 0.00 0.00 0.00 99 1014.6
20260906142211 48 292 0.0 0.0 0.00 0.00 0.00 99 1014.3
20260906141709 48 292 0.0 0.0 0.00 0.00 0.00 99 1014.6
20260906141204 48 293 0.0 0.0 0.00 0.00 0.00 99 1014.6
20260906140703 47 293 0.0 0.0 0.00 0.00 0.00 99 1014.4
20260906140159 47 293 0.0 0.0 0.00 0.00 0.00 99 1014.4
20260906135655 47 293 0.0 0.0 0.00 0.00 0.00 99 1014.4
20260906135151 47 293 0.0 0.0 0.00 0.00 0.00 99 1014.5
20260906134647 47 293 0.0 0.0 0.00 0.00 0.00 99 1014.5
20260906134141 46 293 0.0 0.0 0.00 0.00 0.00 99 1014.5
20260906133637 46 293 0.0 0.0 0.00 0.00 0.00 99 1014.3
20260906133132 46 293 0.0 0.0 0.00 0.00 0.00 99 1014.3
20260906132627 46 293 0.0 0.0 0.00 0.00 0.00 99 1014.3
20260906132123 46 293 0.0 0.0 0.00 0.00 0.00 99 1014.2
20260906131619 47 293 0.0 0.0 0.00 0.00 0.00 99 1014.0
20260906131113 47 293 0.0 0.0 0.00 0.00 0.00 99 1014.2
20260906130608 47 293 0.0 0.0 0.00 0.00 0.00 99 1014.0
20260906130103 47 293 0.0 0.0 0.00 0.00 0.00 99 1014.0
20260906125600 47 293 0.0 0.0 0.00 0.00 0.00 99 1014.0
20260906125054 47 293 0.0 0.0 0.00 0.00 0.00 99 1013.9
20260906124550 47 293 0.0 0.0 0.00 0.00 0.00 99 1013.9
20260906124044 47 293 0.0 0.0 0.00 0.00 0.00 99 1013.9
20260906123543 47 293 0.0 0.0 0.00 0.00 0.00 99 1013.8
20260906123039 48 293 0.0 0.0 0.00 0.00 0.00 99 1014.0
20260906122538 48 293 0.0 0.0 0.00 0.00 0.00 99 1014.0
20260906122035 47 293 0.0 0.0 0.00 0.00 0.00 99 1013.9
20260906121531 47 293 0.0 0.0 0.00 0.00 0.00 99 1013.9
20260906121027 47 293 0.0 0.0 0.00 0.00 0.00 99 1014.0
20260906120521 48 293 0.0 0.0 0.00 0.00 0.00 99 1013.9
20260906120019 48 293 0.0 0.0 0.00 0.00 0.00 99 1014.0
20260906115513 48 293 0.0 0.0 0.00 0.00 0.00 99 1013.8
20260906115008 48 293 0.0 0.0 0.00 0.00 0.00 99 1013.8
20260906114503 48 293 0.0 0.0 0.00 0.00 0.00 99 1013.8
20260906113959 48 293 0.0 0.0 0.00 0.00 0.00 99 1013.8
20260906113457 48 293 0.0 0.0 0.00 0.00 0.00 99 1014.0
20260906112952 48 293 0.0 0.0 0.00 0.00 0.00 99 1013.8
20260906112448 48 293 0.0 0.0 0.00 0.00 0.00 99 1013.8
20260906111944 49 293 0.0 0.0 0.00 0.00 0.00 99 1013.7
20260906111442 48 293 0.0 0.0 0.00 0.00 0.00 99 1014.1
20260906110938 48 293 0.0 0.0 0.00 0.00 0.00 99 1013.9
20260906110433 48 293 0.0 0.0 0.00 0.00 0.00 99 1013.8
20260906105932 47 293 0.0 0.0 0.00 0.00 0.00 99 1013.7
20260906105427 48 293 0.0 0.0 0.00 0.00 0.00 99 1013.8
20260906104923 47 293 0.0 0.0 0.00 0.00 0.00 99 1013.7
20260906104421 48 293 0.0 0.0 0.00 0.00 0.00 99 1013.9
20260906103916 48 293 0.0 0.0 0.00 0.00 0.00 99 1013.7
20260906103414 48 293 0.0 0.0 0.00 0.00 0.00 99 1013.8
20260906102910 48 293 0.0 0.0 0.00 0.00 0.00 99 1014.0
20260906102409 47 293 0.0 0.0 0.00 0.00 0.00 99 1013.8
20260906101904 47 293 0.0 0.0 0.00 0.00 0.00 99 1013.8
20260906101359 47 293 0.0 0.0 0.00 0.00 0.00 99 1013.7
20260906100855 48 293 0.0 0.0 0.00 0.00 0.00 99 1013.9
20260906100354 48 293 0.0 0.0 0.00 0.00 0.00 99 1013.9
20260906095849 48 293 0.0 0.0 0.00 0.00 0.00 99 1013.8
20260906095344 48 292 0.0 0.0 0.00 0.00 0.00 99 1013.9
20260906094843 48 292 0.0 0.0 0.00 0.00 0.00 99 1014.0
20260906094338 48 292 0.0 0.0 0.00 0.00 0.00 99 1013.8
20260906093835 48 292 0.0 0.0 0.00 0.00 0.00 99 1014.2
20260906093325 48 292 0.0 0.0 0.00 0.00 0.00 99 1014.1
20260906092819 48 292 0.0 0.0 0.00 0.00 0.00 99 1014.0
20260906092314 48 292 0.0 0.0 0.00 0.00 0.00 99 1014.0
20260906091809 49 292 0.0 0.0 0.00 0.00 0.00 98 1014.1
20260906091306 49 292 0.0 0.0 0.00 0.00 0.00 98 1014.0
20260906090802 49 292 0.0 0.0 0.00 0.00 0.00 98 1014.0
20260906090301 49 292 0.0 0.0 0.00 0.00 0.00 98 1013.9
20260906085800 49 292 0.0 0.0 0.00 0.00 0.00 98 1014.1
20260906085253 49 292 0.0 0.0 0.00 0.00 0.00 98 1014.0
20260906084748 49 292 0.0 0.0 0.00 0.00 0.00 98 1014.1
20260906084242 49 292 0.0 0.0 0.00 0.00 0.00 98 1014.0
20260906083737 49 292 0.0 0.0 0.00 0.00 0.00 98 1014.0
20260906083233 49 292 0.0 0.0 0.00 0.00 0.00 98 1014.0
20260906082728 49 292 0.0 0.0 0.00 0.00 0.00 98 1014.1
20260906082223 49 292 0.0 0.0 0.00 0.00 0.00 98 1014.0
20260906081719 49 292 0.0 0.0 0.00 0.00 0.00 97 1014.3
20260906081213 49 292 0.0 0.0 0.00 0.00 0.00 97 1014.1
20260906080710 49 292 0.0 0.0 0.00 0.00 0.00 97 1014.2
20260906080206 50 292 0.0 0.0 0.00 0.00 0.00 97 1014.1
20260906075700 50 292 0.0 0.0 0.00 0.00 0.00 97 1014.3
20260906075154 50 292 0.0 0.0 0.00 0.00 0.00 97 1014.2
20260906074649 50 292 0.0 0.0 0.00 0.00 0.00 96 1014.3
20260906074143 50 292 0.0 0.0 0.00 0.00 0.00 96 1014.2
20260906073638 50 292 0.0 0.0 0.00 0.00 0.00 96 1014.1
20260906073134 51 292 0.0 0.0 0.00 0.00 0.00 96 1014.3
20260906072629 50 292 0.0 0.0 0.00 0.00 0.00 96 1014.3
20260906072124 50 292 0.0 0.0 0.00 0.00 0.00 96 1014.1
20260906071620 51 292 0.0 0.0 0.00 0.00 0.00 96 1014.2
20260906071115 51 292 0.0 0.0 0.00 0.00 0.00 96 1014.2
20260906070612 50 292 0.0 0.0 0.00 0.00 0.00 97 1014.4
20260906070107 50 292 0.0 0.0 0.00 0.00 0.00 96 1014.2
20260906065607 50 292 0.0 0.0 0.00 0.00 0.00 96 1014.4
20260906065102 51 292 0.0 0.0 0.00 0.00 0.00 96 1014.3
20260906064557 50 292 0.0 0.0 0.00 0.00 0.00 97 1014.2
20260906064052 51 291 0.0 0.0 0.00 0.00 0.00 96 1014.2
20260906063547 51 291 0.0 0.0 0.00 0.00 0.00 97 1014.2
20260906063043 51 290 0.0 0.0 0.00 0.00 0.00 97 1014.2
20260906062538 51 289 0.0 0.0 0.00 0.00 0.00 97 1014.3
20260906062032 51 296 0.0 0.0 0.00 0.00 0.00 96 1014.2
20260906061529 51 296 0.0 0.0 0.00 0.00 0.00 97 1014.3
20260906061027 51 295 0.0 0.0 0.00 0.00 0.00 96 1014.3
20260906060524 51 298 0.0 0.0 0.00 0.00 0.00 96 1014.3
20260906060021 51 293 0.0 0.0 0.00 0.00 0.00 96 1014.3
20260906055517 51 259 1.0 1.0 0.00 0.00 0.00 96 1014.1
20260906055012 51 272 1.0 1.0 0.00 0.00 0.00 95 1014.3
20260906054507 51 285 0.0 0.0 0.00 0.00 0.00 95 1014.3
20260906054002 51 276 0.0 1.0 0.00 0.00 0.00 95 1014.4
20260906053458 52 274 1.0 1.0 0.00 0.00 0.00 95 1014.3
20260906052954 52 300 0.0 0.0 0.00 0.00 0.00 94 1014.4
20260906052450 52 292 0.0 0.0 0.00 0.00 0.00 94 1014.3
20260906051946 52 294 0.0 0.0 0.00 0.00 0.00 94 1014.3
20260906051442 52 293 0.0 0.0 0.00 0.00 0.00 94 1014.4
20260906050937 52 282 1.0 1.0 0.00 0.00 0.00 94 1014.3
20260906050437 52 299 0.0 0.0 0.00 0.00 0.00 93 1014.4
20260906045936 52 295 0.0 0.0 0.00 0.00 0.00 93 1014.4
20260906045435 52 297 0.0 0.0 0.00 0.00 0.00 93 1014.5
20260906044931 53 297 0.0 0.0 0.00 0.00 0.00 92 1014.5
20260906044426 53 297 0.0 0.0 0.00 0.00 0.00 92 1014.5
20260906043922 53 297 0.0 0.0 0.00 0.00 0.00 92 1014.5
20260906043417 53 296 0.0 0.0 0.00 0.00 0.00 91 1014.4
20260906042913 53 300 0.0 0.0 0.00 0.00 0.00 90 1014.4
20260906042412 53 304 0.0 0.0 0.00 0.00 0.00 91 1014.2
20260906041907 54 304 0.0 0.0 0.00 0.00 0.00 90 1014.1
20260906041403 54 303 0.0 0.0 0.00 0.00 0.00 90 1014.4
20260906040903 54 302 0.0 0.0 0.00 0.00 0.00 89 1014.1
20260906040358 55 296 1.0 1.0 0.00 0.00 0.00 88 1014.0
20260906035853 55 281 0.0 0.0 0.00 0.00 0.00 87 1014.1
20260906035349 55 287 0.0 1.0 0.00 0.00 0.00 87 1014.0
20260906034843 55 294 0.0 0.0 0.00 0.00 0.00 87 1014.0
20260906034338 56 292 0.0 0.0 0.00 0.00 0.00 86 1014.0
20260906033834 56 305 0.0 1.0 0.00 0.00 0.00 84 1013.9
20260906033333 57 260 1.0 2.0 0.00 0.00 0.00 83 1013.9
20260906032830 57 291 1.0 1.0 0.00 0.00 0.00 82 1014.0
20260906032326 57 304 0.0 1.0 0.00 0.00 0.00 81 1013.9
20260906031821 58 297 0.0 1.0 0.00 0.00 0.00 80 1013.8
20260906031316 58 320 1.0 2.0 0.00 0.00 0.00 79 1014.0
20260906030815 58 309 1.0 1.0 0.00 0.00 0.00 79 1014.0
20260906030311 58 306 1.0 1.0 0.00 0.00 0.00 78 1014.1
20260906025811 58 311 0.0 0.0 0.00 0.00 0.00 78 1013.9
20260906025306 59 312 0.0 0.0 0.00 0.00 0.00 78 1014.0
20260906024804 59 319 0.0 1.0 0.00 0.00 0.00 77 1013.9
20260906024303 59 305 0.0 0.0 0.00 0.00 0.00 76 1013.9
20260906023759 60 314 1.0 1.0 0.00 0.00 0.00 74 1014.0
20260906023254 60 309 0.0 0.0 0.00 0.00 0.00 73 1014.0
20260906022750 60 290 1.0 1.0 0.00 0.00 0.00 72 1013.9
20260906022245 61 301 0.0 0.0 0.00 0.00 0.00 71 1014.1
20260906021741 61 302 1.0 1.0 0.00 0.00 0.00 70 1014.0
20260906021240 61 273 0.0 0.0 0.00 0.00 0.00 69 1014.0
20260906020734 62 308 0.0 1.0 0.00 0.00 0.00 67 1014.2
20260906020229 62 317 0.0 1.0 0.00 0.00 0.00 65 1014.1
20260906015724 63 338 1.0 1.0 0.00 0.00 0.00 66 1014.2
20260906015222 63 306 3.0 5.0 0.00 0.00 0.00 64 1014.2
20260906014717 63 324 0.0 1.0 0.00 0.00 0.00 64 1014.2
20260906014213 64 292 1.0 2.0 0.00 0.00 0.00 63 1014.0
20260906013709 64 299 0.0 0.0 0.00 0.00 0.00 62 1014.2
20260906013208 64 283 2.0 2.0 0.00 0.00 0.00 63 1014.1
20260906012703 64 304 1.0 1.0 0.00 0.00 0.00 63 1014.1
20260906012158 65 254 3.0 5.0 0.00 0.00 0.00 62 1014.1
20260906011653 65 261 1.0 1.0 0.00 0.00 0.00 64 1014.3
20260906011147 65 302 1.0 2.0 0.00 0.00 0.00 64 1014.2
20260906010637 65 231 1.0 2.0 0.00 0.00 0.00 64 1014.2
20260906010133 65 300 1.0 2.0 0.00 0.00 0.00 64 1014.1
20260906005632 66 311 6.0 7.0 0.00 0.00 0.00 63 1014.1
20260906005127 66 295 1.0 2.0 0.00 0.00 0.00 62 1014.1
20260906004626 66 212 2.0 3.0 0.00 0.00 0.00 61 1014.1
20260906004121 66 253 2.0 3.0 0.00 0.00 0.00 62 1014.2
20260906003616 66 287 1.0 2.0 0.00 0.00 0.00 62 1014.3
20260906003112 67 287 2.0 2.0 0.00 0.00 0.00 59 1014.1
20260906002607 68 305 0.0 1.0 0.00 0.00 0.00 59 1014.4
20260906002101 69 291 4.0 5.0 0.00 0.00 0.00 56 1014.3
20260906001551 68 344 3.0 3.0 0.00 0.00 0.00 60 1014.2
20260906001050 69 308 3.0 3.0 0.00 0.00 0.00 60 1014.2
20260906000547 69 303 3.0 3.0 0.00 0.00 0.00 58 1014.3
20260906000042 69 284 2.0 3.0 0.00 0.00 0.00 56 1014.3
20260905235536 70 316 1.0 2.0 0.00 0.00 0.00 56 1014.3
20260905235031 70 235 3.0 5.0 0.00 0.00 0.00 55 1014.1
20260905234526 70 289 2.0 3.0 0.00 0.00 0.00 55 1014.3
20260905234021 71 278 3.0 3.0 0.00 0.00 0.00 57 1014.2
20260905233516 71 307 1.0 2.0 0.00 0.00 0.00 56 1014.3
20260905233015 69 301 1.0 2.0 0.00 0.00 0.00 59 1014.2
20260905232511 71 248 4.0 6.0 0.00 0.00 0.00 55 1014.3
20260905232007 70 285 1.0 1.0 0.00 0.00 0.00 57 1014.3
20260905231502 71 306 2.0 2.0 0.00 0.00 0.00 56 1014.3
20260905230958 71 232 3.0 5.0 0.00 0.00 0.00 55 1014.6
20260905230456 71 236 0.0 1.0 0.00 0.00 0.00 57 1014.6
20260905225954 71 297 3.0 3.0 0.00 0.00 0.00 55 1014.5
20260905225450 71 230 2.0 2.0 0.00 0.00 0.00 57 1014.6
20260905224945 71 275 1.0 1.0 0.00 0.00 0.00 58 1014.8
20260905224440 71 249 3.0 5.0 0.00 0.00 0.00 55 1014.9
20260905223939 70 265 2.0 3.0 0.00 0.00 0.00 57 1014.8
20260905223438 71 274 3.0 5.0 0.00 0.00 0.00 57 1014.7
20260905222932 71 259 3.0 5.0 0.00 0.00 0.00 56 1014.9
20260905222432 71 295 3.0 5.0 0.00 0.00 0.00 59 1014.8
20260905221928 71 253 5.0 7.0 0.00 0.00 0.00 59 1014.8
20260905221424 72 256 4.0 7.0 0.00 0.00 0.00 56 1014.9
20260905220920 73 306 1.0 1.0 0.00 0.00 0.00 56 1015.0
20260905220416 73 311 2.0 2.0 0.00 0.00 0.00 54 1014.8
20260905215915 74 335 1.0 2.0 0.00 0.00 0.00 57 1014.8
20260905215411 73 304 4.0 5.0 0.00 0.00 0.00 55 1014.6
20260905214907 73 257 4.0 6.0 0.00 0.00 0.00 53 1015.1